Location: Campestrin
(46.4667°N, 11.7167°E)
Time: 10:58:21
(UTC+00:00)

NOSS 0 Rocket - Pass Details

Date: 18 April 2021
Orbit: 935 x 955 km, 70.0° (Epoch: 06 May)

Event Time Altitude Azimuth Distance (km) Brightness Sun altitude
Rises 19:05:39 0° 334° (NNW) 3,625 8.0 -10.4°
Reaches altitude 10° 19:08:17 10° 339° (NNW) 2,679 7.1 -10.8°
Maximum altitude 19:14:19 51° 55° (NE) 1,190 4.3 -11.7°
Enters shadow 19:19:06 16° 126° (SE) 2,240 5.2 -12.4°
